Location: Bottenau
(48.5138°N, 8.0462°E)
Time: 06:04:56
(UTC+00:00)

ATLAS 3B R/B - Pass Details

Date: 31 July 2021
Orbit: 1001 x 1194 km, 63.8° (Epoch: 09 September)

Event Time Altitude Azimuth Distance (km) Brightness Sun altitude
Rises 20:57:24 0° 313° (NW) 3,933 7.5 -14.8°
Reaches altitude 10° 21:00:31 10° 301° (WNW) 3,003 6.2 -15.2°
Maximum altitude 21:06:06 25° 249° (WSW) 2,131 4.4 -15.7°
Drops below altitude 10° 21:11:49 10° 198° (SSW) 3,082 4.8 -16.3°
Enters shadow 21:12:49 - 194° (SSW) 3,364 4.9 -16.4°
